Location: Peebles
(55.6412°N, 3.1714°W)
Time: 01:32:16
(UTC+01:00)

deb r/b Ablestar - Pass Details

Date: 08 July 2022
Orbit: 859 x 1154 km, 67.2° (Epoch: 13 August)

Event Time Altitude Azimuth Distance (km) Brightness Sun altitude
Rises 00:33:22 0° 317° (NW) 4,013 ? -11.3°
Reaches altitude 10° 00:36:04 10° 316° (NW) 3,061 ? -11.4°
Maximum altitude 00:43:24 77° 233° (SW) 1,185 ? -11.5°
Enters shadow 00:50:18 11° 149° (SSE) 2,896 ? -11.6°
